Regional Weather Roundup
Issued by NWS

Home | Current Version | Previous Version | Text Only | Print | Product List | Glossary Off
Versions: 1 2 3 4 5 6 7 8 9 10 11 12 13 14 15 16 17 18 19 20 21 22 23 24 25 26 27 28 29 30 31 32 33 34 35 36 37 38 39 40 41 42 43 44 45 46 47 48 49 50

000
ASUS43 KLOT 182000
RWRIL

ILLINOIS REGIONAL WEATHER ROUNDUP
NATIONAL WEATHER SERVICE CHICAGO/ROMEOVILLE IL
300 PM CDT FRI APR 18 2014

NOTE: "FAIR" INDICATES FEW OR NO CLOUDS BELOW 12,000 FEET WITH NO
SIGNIFICANT WEATHER AND/OR OBSTRUCTIONS TO VISIBILITY.

* THESE STATIONS ARE NOT UNDER NWS QUALITY CONTROL. THEY ALSO MAY NOT
  REPORT WEATHER SUCH AS PRECIPITATION OR FOG.

ILZ001-002-007-009-015-016-024-182100-
NORTHWEST ILLINOIS

CITY           SKY/WX    TMP DP  RH WIND       PRES   REMARKS
MOLINE         SUNNY     62  30  29 CALM      30.30F
STERLING*      SUNNY     61  34  36 E5        30.30F
$$

ILZ003-004-008-010-011-017-018-182100-
NORTH CENTRAL ILLINOIS

CITY           SKY/WX    TMP DP  RH WIND       PRES   REMARKS
ROCKFORD       MOSUNNY   59  28  30 NE6       30.32F
$$

ILZ005-006-012>014-019>023-182100-
NORTHEAST ILLINOIS

CITY           SKY/WX    TMP DP  RH WIND       PRES   REMARKS
CHICAGO-OHARE  MOSUNNY   51  33  50 NE12      30.34F
CHICAGO-MIDWAY MOSUNNY   51  36  56 E10       30.34F
AURORA         SUNNY     60  34  37 CALM      30.30F
WAUKEGAN       SUNNY     42  31  64 NE10      30.35F
DUPAGE AIRPORT SUNNY     58  37  45 NE10      30.30F
WHEELING       SUNNY     46  32  58 NE12      30.36F
NORTHERLY ISL    N/A     42  34  73 NE12        N/A
$$

LMZ740>746-182100-
SOUTHERN LAKE MICHIGAN

STATION/POSITION SKY/WX   TEMP    WIND        PRES    VSBY  WAVE
                          AIR SEA DIR/SP/G                  HT/PER
                          (F)     (DEG/KT/KT) (MB)    (MI)  (FT/S)
WAUKEGAN HARBOR            36      50/ 11/ 14 1029.5S
HARRISON CRIB              37      10/ 14/ 16   N/A
BURNHAM HARBOR             42      30/ 11/ 15   N/A
CALUMET HARBOR             40      20/ 11/ 13 1028.9F
MICHIGAN CITY              40     350/  9/ 10   N/A
$$

ILZ025>027-034>036-040-047-049-050-058-095>099-182100-
WEST-CENTRAL ILLINOIS

CITY           SKY/WX    TMP DP  RH WIND       PRES   REMARKS
QUINCY         SUNNY     64  36  35 N7        30.28F
$$

ILZ028>032-037-038-041>044-048-051>054-059>061-182100-
CENTRAL ILLINOIS

CITY           SKY/WX    TMP DP  RH WIND       PRES   REMARKS
DECATUR        SUNNY     67  38  34 MISG      30.28F
PEORIA         SUNNY     66  35  31 VRB5      30.30F
SPRINGFIELD    SUNNY     67  34  29 VRB5      30.29F
TAYLORVILLE    NOT AVBL
$$

ILZ033-039-045-046-055>057-062-063-182100-
EAST-CENTRAL ILLINOIS

CITY           SKY/WX    TMP DP  RH WIND       PRES   REMARKS
CHAMPAIGN      SUNNY     67  38  34 NW10      30.28F
MATTOON        SUNNY     68  43  40 W5        30.27F
$$

ILZ079-100>102-182100-
SOUTHWEST ILLINOIS

CITY           SKY/WX    TMP DP  RH WIND       PRES   REMARKS
ALTON          SUNNY     68  37  32 VRB3      30.28F
BELLEVILLE     SUNNY     69  45  41 N6        30.26F
CAHOKIA*       SUNNY     69  43  38 N8        30.27F
$$

ILZ064>066-069>071-074>076-080>082-084>086-088>090-092>094-182100-
SOUTH-CENTRAL ILLINOIS

CITY           SKY/WX    TMP DP  RH WIND       PRES   REMARKS
CARBONDALE     SUNNY     71  43  36 N3        30.25F
MT. VERNON     SUNNY     70  41  35 N8        30.26F
$$

ILZ067-068-072-073-078-083-087-091-182100-
SOUTHEAST ILLINOIS

CITY           SKY/WX    TMP DP  RH WIND       PRES   REMARKS
$$

ABBREVIATIONS USED IN REMARKS
   TC - TEMPERATURE IN CELSIUS
  WCI - WIND CHILL INDEX
   HX - HEAT INDEX
  VSB - VISIBILITY
$$




USA.gov is the U.S. government's official web portal to all federal, state and local government web resources and services.